Location: Carson
(33.8314°N, 118.2820°W)
Time: 14:00:32
(UTC+00:00)

Meteor PRIRODA - Pass Details

Date: 23 November 2020
Orbit: 489 x 510 km, 97.6° (Epoch: 21 January)

Event Time Altitude Azimuth Distance (km) Brightness Sun altitude
Rises 12:52:07 0° 17° (NNE) 2,622 7.4 -20.8°
Reaches altitude 10° 12:54:15 10° 21° (NNE) 1,734 6.5 -20.4°
Maximum altitude 12:57:55 54° 100° (E) 622 4.4 -19.6°
Drops below altitude 10° 13:01:34 10° 179° (S) 1,722 6.5 -18.9°
Sets 13:03:40 0° 183° (S) 2,602 7.4 -18.5°
